[TLELIST] Archives

 

[list_settings.list_name] Current TLEs

June 26th 2021 PST

HST 1 20580U 90037B 21176.78367243 .00000530 00000-0 21105-4 0 9992 2 20580 28.4710 9.9603 0002755 150.0462 321.7396 15.09666748512307 ISS (ZARYA) 1 25544U 98067A 21177.19543338 .00003617 00000-0 74436-4 0 9999 2 25544 51.6453 298.1729 0002234 104.1647 327.9113 15.48735396289992 CXO 1 25867U 99040B 21178.68761465 .00000344 00000-0 00000-0 0 9993 2 25867 54.8007 254.7991 8338625 226.5189 0.1185 0.37807751 10485 ____________________________________________________________________ These 2-Line ...Continue Reading

[list_settings.list_name] Current TLEs

June 25th 2021 PST

HST 1 20580U 90037B 21175.86118407 .00000518 00000-0 20351-4 0 9994 2 20580 28.4710 16.0640 0002781 140.5547 347.7534 15.09666063512160 ISS (ZARYA) 1 25544U 98067A 21176.36001853 -.00000531 00000-0 -15293-5 0 9999 2 25544 51.6455 302.3054 0002044 94.8199 356.3824 15.48726669289863 CXO 1 25867U 99040B 21178.68590573 .00000344 00000-0 00000-0 0 9993 2 25867 54.8007 254.7990 8338634 226.5192 359.8854 0.37807835 10477 ____________________________________________________________________ These 2-Line ...Continue Reading

[list_settings.list_name] Current TLEs

June 24th 2021 PST

HST 1 20580U 90037B 21175.00637101 .00000522 00000-0 20592-4 0 9999 2 20580 28.4710 21.7201 0002803 131.7203 21.6429 15.09665547512259 ISS (ZARYA) 1 25544U 98067A 21175.38768994 -.00307056 00000-0 -58547-2 0 9994 2 25544 51.6468 307.1264 0003047 120.9304 305.5704 15.48664113289718 CXO 1 25867U 99040B 21176.04398256 .00000353 00000-0 00000-0 0 9995 2 25867 54.8808 254.9167 8333657 226.5150 0.1711 0.37803241 10473 ____________________________________________________________________ These 2-Line ...Continue Reading

[list_settings.list_name] Current TLEs

June 23rd 2021 PST

HST 1 20580U 90037B 21173.94713341 .00000510 00000-0 19852-4 0 9995 2 20580 28.4710 28.7285 0002825 120.9902 24.2223 15.09664797511872 ISS (ZARYA) 1 25544U 98067A 21173.65515341 -.00000451 00000-0 00000+0 0 9994 2 25544 51.6428 315.6803 0003919 122.6547 356.3586 15.49000460289445 CXO 1 25867U 99040B 21176.04398256 .00000353 00000-0 00000-0 0 9995 2 25867 54.8808 254.9167 8333657 226.5150 0.1711 0.37803241 10473 ____________________________________________________________________ These 2-Line ...Continue Reading

[list_settings.list_name] Current TLEs

June 22nd 2021 PST

HST 1 20580U 90037B 21172.02916236 .00000501 00000-0 19324-4 0 9995 2 20580 28.4710 41.4190 0002842 101.5717 39.2049 15.09663447511588 ISS (ZARYA) 1 25544U 98067A 21173.38362838 .00001185 00000-0 29656-4 0 9992 2 25544 51.6449 317.0223 0003361 119.5497 284.3239 15.49011603289402 CXO 1 25867U 99040B 21173.39957508 .00000393 00000-0 00000+0 0 9994 2 25867 54.9419 255.0053 8328931 226.5435 0.0931 0.37802661 21596 ____________________________________________________________________ These 2-Line ...Continue Reading

[list_settings.list_name] Current TLEs

June 21st 2021 PST

HST 1 20580U 90037B 21171.37356733 .00000508 00000-0 19764-4 0 9997 2 20580 28.4710 45.7568 0002842 94.8923 75.8009 15.09663011511485 ISS (ZARYA) 1 25544U 98067A 21171.52477565 .00000573 00000-0 18561-4 0 9993 2 25544 51.6439 326.2204 0003431 114.0576 357.2071 15.49003599289115 CXO 1 25867U 99040B 21173.39957508 .00000393 00000-0 00000+0 0 9994 2 25867 54.9419 255.0053 8328931 226.5435 0.0931 0.37802661 21596 ____________________________________________________________________ These 2-Line ...Continue Reading

[list_settings.list_name] Current TLEs

June 20th 2021 PST

HST 1 20580U 90037B 21170.38053661 .00000540 00000-0 21722-4 0 9994 2 20580 28.4709 52.3274 0002841 84.9244 78.1602 15.09662431511330 ISS (ZARYA) 1 25544U 98067A 21171.25764677 .00001654 00000-0 38181-4 0 9997 2 25544 51.6448 327.5381 0003371 110.1082 310.5598 15.49006568289077 CXO 1 25867U 99040B 21173.39890247 .00000393 00000-0 00000-0 0 9991 2 25867 54.9419 255.0055 8328914 226.5431 0.0011 0.37802488 10454 ____________________________________________________________________ These 2-Line ...Continue Reading

[list_settings.list_name] Current TLEs

June 19th 2021 PST

HST 1 20580U 90037B 21169.05269045 .00000571 00000-0 23590-4 0 9990 2 20580 28.4707 61.1132 0002825 71.8081 60.4140 15.09661557511132 ISS (ZARYA) 1 25544U 98067A 21169.52366691 .00001463 00000-0 34713-4 0 9993 2 25544 51.6450 336.1136 0003514 106.0446 358.8609 15.48998553288802 CXO 1 25867U 99040B 21170.75349962 .00000526 00000-0 00000-0 0 9999 2 25867 55.0267 255.1398 8328676 226.5315 359.8441 0.37813693 10445 ____________________________________________________________________ These 2-Line ...Continue Reading

[list_settings.list_name] Current TLEs

June 18th 2021 PST

HST 1 20580U 90037B 21169.05269045 .00000571 00000-0 23590-4 0 9990 2 20580 28.4707 61.1132 0002825 71.8081 60.4140 15.09661557511356 ISS (ZARYA) 1 25544U 98067A 21169.21312520 .00001377 00000-0 33159-4 0 9998 2 25544 51.6449 337.6500 0003500 104.2716 67.7854 15.48996804288755 CXO 1 25867U 99040B 21170.75349962 .00000526 00000-0 00000-0 0 9999 2 25867 55.0267 255.1398 8328676 226.5315 359.8441 0.37813693 10445 ____________________________________________________________________ These 2-Line ...Continue Reading

[list_settings.list_name] Current TLEs

June 17th 2021 PST

HST 1 20580U 90037B 21167.20170705 .00000519 00000-0 20420-4 0 9990 2 20580 28.4704 73.3603 0002790 53.0882 79.5053 15.09659824510855 ISS (ZARYA) 1 25544U 98067A 21168.49026323 .00000846 00000-0 23522-4 0 9993 2 25544 51.6446 341.2239 0003478 102.0528 356.3819 15.48991730288642 CXO 1 25867U 99040B 21170.75349962 .00000526 00000-0 00000-0 0 9999 2 25867 55.0267 255.1398 8328676 226.5315 359.8441 0.37813693 10445 ____________________________________________________________________ These 2-Line ...Continue Reading
  • This mailing list is a public mailing list - anyone may join or leave, at any time.
  • This mailing list is announce-only.

International Space Station (ISS) / Hubble Space Telescope (HST) / Chandra X-Ray Observatory Orbital Data via EMAIL

Privacy Policy:

Private list